• In United Kingdom
  • List of Countries
  • For 7 days
  • Water Temperature
  • Satellite Maps
  • Weather Map
  • Weather Widgets
  • user-avatar
    Login

    Hourly Weather Lepeshki

    Today, 16 August, Thursday

    Time Temperature Precipitation Wind Pressure Humidity
    00:00 +17°C° 0 mm 2 mps 741 mmHg 96%
    01:00 +17°C° 0 mm 2 mps 741 mmHg 96%
    02:00 +18°C° 0 mm 1 mps 742 mmHg 96%
    03:00 +16°C° 0 mm 1 mps 742 mmHg 97%
    04:00 +16°C° 0 mm 1 mps 742 mmHg 97%
    05:00 +16°C° 0 mm 1 mps 742 mmHg 97%
    06:00 +18°C° 0 mm 1 mps 743 mmHg 92%
    07:00 +20°C° 0 mm 1 mps 743 mmHg 87%
    08:00 +20°C° 0 mm 2 mps 743 mmHg 80%
    09:00 +21°C° 0.2 mm 2 mps 743 mmHg 76%
    10:00 +23°C° 0.2 mm 2 mps 744 mmHg 72%
    11:00 +24°C° 0.2 mm 2 mps 744 mmHg 67%
    12:00 +24°C° 0.6 mm 2 mps 744 mmHg 69%
    13:00 +24°C° 0.6 mm 2 mps 744 mmHg 70%
    14:00 +24°C° 0 mm 2 mps 744 mmHg 71%
    15:00 +24°C° 0.3 mm 2 mps 744 mmHg 73%
    16:00 +23°C° 0.3 mm 2 mps 745 mmHg 75%
    17:00 +23°C° 0.3 mm 2 mps 745 mmHg 76%
    18:00 +20°C° 0 mm 2 mps 745 mmHg 82%
    19:00 +18°C° 0 mm 2 mps 745 mmHg 87%
    20:00 +17°C° 0 mm 2 mps 745 mmHg 93%
    21:00 +16°C° 0 mm 2 mps 745 mmHg 94%
    22:00 +15°C° 0 mm 2 mps 746 mmHg 95%
    23:00 +15°C° 0 mm 2 mps 746 mmHg 96%

    Tomorrow, 17 August, Friday

    Time Temperature Precipitation Wind Pressure Humidity
    00:00 +14°C° 0 mm 2 mps 746 mmHg 96%
    01:00 +14°C° 0 mm 2 mps 746 mmHg 96%
    02:00 +14°C° 0 mm 2 mps 747 mmHg 97%
    03:00 +13°C° 0 mm 2 mps 747 mmHg 96%
    04:00 +13°C° 0 mm 2 mps 747 mmHg 96%
    05:00 +13°C° 0 mm 2 mps 748 mmHg 96%
    06:00 +15°C° 0 mm 2 mps 748 mmHg 90%
    07:00 +17°C° 0 mm 3 mps 748 mmHg 84%
    08:00 +18°C° 0 mm 3 mps 748 mmHg 78%
    09:00 +20°C° 0 mm 3 mps 748 mmHg 71%
    10:00 +21°C° 0 mm 3 mps 748 mmHg 65%
    11:00 +22°C° 0 mm 3 mps 748 mmHg 58%
    12:00 +24°C° 0 mm 3 mps 748 mmHg 56%
    13:00 +24°C° 0 mm 3 mps 748 mmHg 54%
    14:00 +25°C° 0 mm 3 mps 748 mmHg 53%
    15:00 +25°C° 0 mm 3 mps 748 mmHg 56%
    16:00 +24°C° 0 mm 2 mps 747 mmHg 59%
    17:00 +24°C° 0 mm 2 mps 747 mmHg 62%
    18:00 +21°C° 0 mm 2 mps 747 mmHg 68%
    19:00 +19°C° 0 mm 2 mps 747 mmHg 75%
    20:00 +17°C° 0 mm 2 mps 747 mmHg 82%
    21:00 +16°C° 0 mm 2 mps 748 mmHg 84%
    22:00 +15°C° 0 mm 2 mps 748 mmHg 86%
    23:00 +15°C° 0 mm 2 mps 748 mmHg 88%

    Day after tomorrow, 18 August, Saturday

    Time Temperature Precipitation Wind Pressure Humidity
    00:00 +14°C° 0 mm 2 mps 748 mmHg 88%
    01:00 +14°C° 0 mm 2 mps 748 mmHg 89%
    02:00 +13°C° 0 mm 2 mps 748 mmHg 90%
    03:00 +13°C° 0 mm 2 mps 748 mmHg 90%
    04:00 +13°C° 0 mm 2 mps 748 mmHg 90%
    05:00 +13°C° 0 mm 2 mps 748 mmHg 90%
    06:00 +15°C° 0 mm 2 mps 748 mmHg 83%
    07:00 +17°C° 0 mm 2 mps 748 mmHg 77%
    08:00 +19°C° 0 mm 2 mps 748 mmHg 70%
    09:00 +20°C° 0 mm 3 mps 748 mmHg 64%
    10:00 +22°C° 0 mm 3 mps 748 mmHg 59%
    11:00 +25°C° 0 mm 3 mps 748 mmHg 54%
    12:00 +25°C° 0 mm 3 mps 748 mmHg 52%
    13:00 +26°C° 0 mm 3 mps 747 mmHg 51%
    14:00 +26°C° 0 mm 3 mps 747 mmHg 49%
    15:00 +26°C° 0 mm 3 mps 747 mmHg 53%
    16:00 +25°C° 0 mm 3 mps 747 mmHg 56%
    17:00 +25°C° 0 mm 2 mps 747 mmHg 60%
    18:00 +23°C° 0 mm 2 mps 747 mmHg 67%
    19:00 +20°C° 0 mm 2 mps 747 mmHg 74%
    20:00 +18°C° 0 mm 2 mps 747 mmHg 80%
    21:00 +17°C° 0 mm 2 mps 747 mmHg 82%
    22:00 +16°C° 0 mm 2 mps 747 mmHg 83%
    23:00 +16°C° 0 mm 2 mps 747 mmHg 84%

    19 August, Sunday

    Time Temperature Precipitation Wind Pressure Humidity
    00:00 +15°C° 0 mm 2 mps 747 mmHg 85%
    01:00 +15°C° 0 mm 2 mps 747 mmHg 86%
    02:00 +14°C° 0 mm 2 mps 747 mmHg 87%
    03:00 +14°C° 0 mm 2 mps 747 mmHg 87%
    04:00 +14°C° 0 mm 2 mps 747 mmHg 87%
    05:00 +13°C° 0 mm 3 mps 746 mmHg 87%
    06:00 +16°C° 0 mm 3 mps 746 mmHg 81%
    07:00 +18°C° 0 mm 3 mps 746 mmHg 74%
    08:00 +19°C° 0 mm 3 mps 746 mmHg 68%
    09:00 +21°C° 0 mm 4 mps 746 mmHg 63%
    10:00 +22°C° 0 mm 4 mps 746 mmHg 58%
    11:00 +25°C° 0 mm 4 mps 746 mmHg 52%
    12:00 +25°C° 0 mm 4 mps 745 mmHg 51%
    13:00 +26°C° 0 mm 4 mps 745 mmHg 50%
    14:00 +26°C° 0 mm 4 mps 745 mmHg 49%
    15:00 +26°C° 0 mm 4 mps 745 mmHg 53%
    16:00 +25°C° 0 mm 3 mps 744 mmHg 57%
    17:00 +25°C° 0 mm 3 mps 744 mmHg 61%
    18:00 +22°C° 0.1 mm 3 mps 744 mmHg 68%
    19:00 +20°C° 0.1 mm 3 mps 744 mmHg 74%
    20:00 +19°C° 0.1 mm 2 mps 744 mmHg 81%
    21:00 +18°C° 0.2 mm 2 mps 743 mmHg 82%
    22:00 +18°C° 0.2 mm 2 mps 743 mmHg 84%
    23:00 +17°C° 0.2 mm 3 mps 743 mmHg 86%

    20 August, Monday

    Time Temperature Precipitation Wind Pressure Humidity
    00:00 +17°C° 0.2 mm 2 mps 743 mmHg 88%
    01:00 +16°C° 0.2 mm 2 mps 743 mmHg 90%
    02:00 +16°C° 0.2 mm 2 mps 743 mmHg 92%
    03:00 +16°C° 0.1 mm 2 mps 743 mmHg 93%
    04:00 +16°C° 0.1 mm 2 mps 743 mmHg 95%
    05:00 +15°C° 0.1 mm 2 mps 743 mmHg 96%
    06:00 +17°C° 0.4 mm 2 mps 743 mmHg 94%
    07:00 +18°C° 0.4 mm 2 mps 743 mmHg 92%
    08:00 +19°C° 0.4 mm 2 mps 743 mmHg 90%
    09:00 +20°C° 0.2 mm 2 mps 743 mmHg 85%
    10:00 +21°C° 0.2 mm 2 mps 743 mmHg 80%
    11:00 +23°C° 0.2 mm 2 mps 744 mmHg 74%
    12:00 +23°C° 0.2 mm 2 mps 744 mmHg 71%
    13:00 +24°C° 0.2 mm 2 mps 744 mmHg 68%
    14:00 +25°C° 0.2 mm 2 mps 744 mmHg 65%
    15:00 +24°C° 0.3 mm 2 mps 743 mmHg 70%
    16:00 +23°C° 0.3 mm 2 mps 743 mmHg 76%
    17:00 +21°C° 0.3 mm 2 mps 743 mmHg 82%
    18:00 +20°C° 0 mm 2 mps 743 mmHg 86%
    19:00 +19°C° 0 mm 1 mps 744 mmHg 90%
    20:00 +18°C° 0 mm 1 mps 744 mmHg 94%
    21:00 +16°C° 0 mm 1 mps 744 mmHg 94%
    22:00 +16°C° 0 mm 1 mps 744 mmHg 95%
    23:00 +15°C° 0 mm 1 mps 744 mmHg 96%

    21 August, Tuesday

    Time Temperature Precipitation Wind Pressure Humidity
    00:00 +15°C° 0 mm 1 mps 744 mmHg 96%
    01:00 +14°C° 0 mm 1 mps 744 mmHg 96%
    02:00 +14°C° 0 mm 1 mps 744 mmHg 96%
    03:00 +14°C° 0 mm 1 mps 745 mmHg 96%
    04:00 +14°C° 0 mm 1 mps 745 mmHg 96%
    05:00 +13°C° 0 mm 1 mps 745 mmHg 96%
    06:00 +15°C° 0 mm 1 mps 745 mmHg 91%
    07:00 +16°C° 0 mm 1 mps 745 mmHg 87%
    08:00 +19°C° 0 mm 1 mps 745 mmHg 82%
    09:00 +20°C° 0.1 mm 1 mps 746 mmHg 75%
    10:00 +21°C° 0.1 mm 1 mps 746 mmHg 68%
    11:00 +23°C° 0.1 mm 2 mps 746 mmHg 61%
    12:00 +23°C° 0 mm 2 mps 746 mmHg 57%
    13:00 +24°C° 0 mm 2 mps 746 mmHg 54%
    14:00 +25°C° 0 mm 2 mps 745 mmHg 50%
    15:00 +24°C° 0 mm 2 mps 745 mmHg 53%
    16:00 +24°C° 0 mm 1 mps 745 mmHg 57%
    17:00 +23°C° 0 mm 1 mps 745 mmHg 60%
    18:00 +21°C° 0 mm 1 mps 745 mmHg 66%
    19:00 +19°C° 0 mm 1 mps 745 mmHg 73%
    20:00 +16°C° 0 mm 1 mps 745 mmHg 79%
    21:00 +15°C° 0 mm 1 mps 745 mmHg 82%
    22:00 +15°C° 0 mm 1 mps 745 mmHg 84%
    23:00 +14°C° 0 mm 1 mps 746 mmHg 87%
    Show more